Time[GMT],salinity[psu](1m),sigma_t[kg/m^3](1m),conductivity[msiemens/cm](1m),temperature[C](1m)
2019-06-01 18:00,29.379,22.247,34.090,11.90
2019-06-01 19:00,29.393,22.201,34.360,12.21
2019-06-01 20:00,29.356,22.223,34.090,11.93
2019-06-01 21:00,29.334,22.259,33.820,11.63
2019-06-01 22:00,29.366,22.280,33.870,11.65
2019-06-01 23:00,29.442,22.467,33.340,10.91
2019-06-02 00:00,29.281,22.299,33.380,11.16
2019-06-02 01:00,29.161,22.237,33.110,10.98
2019-06-02 02:00,29.082,22.158,33.110,11.08
2019-06-02 03:00,29.026,22.095,33.150,11.20
2019-06-02 04:00,28.996,22.063,33.160,11.25
2019-06-02 05:00,28.949,22.016,33.160,11.31
2019-06-02 06:00,28.928,22.002,33.130,11.30
2019-06-02 07:00,28.913,21.986,33.130,11.32
2019-06-02 08:00,28.903,21.978,33.120,11.32
2019-06-02 09:00,28.915,21.995,33.100,11.28
2019-06-02 10:00,28.903,21.987,33.080,11.27
2019-06-02 11:00,28.899,21.979,33.100,11.30
2019-06-02 12:00,28.903,21.978,33.120,11.32
2019-06-02 13:00,28.901,21.970,33.150,11.36
2019-06-02 14:00,28.904,21.960,33.210,11.43
2019-06-02 15:00,28.917,21.967,33.240,11.45
2019-06-02 16:00,28.882,21.937,33.220,11.47
2019-06-02 17:00,28.932,21.964,33.320,11.53
2019-06-02 18:00,28.979,21.964,33.540,11.74
2019-06-02 19:00,29.004,21.939,33.770,11.99
2019-06-02 20:00,29.021,21.935,33.870,12.09
2019-06-02 21:00,29.040,21.950,33.890,12.09
2019-06-02 22:00,29.070,21.981,33.880,12.04
2019-06-02 23:00,28.989,21.914,33.820,12.07
2019-06-03 00:00,29.045,21.958,33.870,12.06
2019-06-03 01:00,29.082,21.998,33.860,12.00
2019-06-03 02:00,29.110,22.040,33.800,11.89
2019-06-03 03:00,29.143,22.071,33.810,11.86
2019-06-03 04:00,29.000,21.979,33.570,11.75
2019-06-03 05:00,29.006,21.968,33.650,11.84
2019-06-03 06:00,28.938,21.916,33.570,11.83
2019-06-03 07:00,28.902,21.905,33.460,11.74
2019-06-03 08:00,28.942,21.953,33.420,11.64
2019-06-03 09:00,29.128,22.094,33.630,11.66
2019-06-03 10:00,29.281,22.193,33.880,11.77
2019-06-03 11:00,29.371,22.259,33.990,11.79
2019-06-03 12:00,29.430,22.303,34.060,11.80
2019-06-03 13:00,29.487,22.348,34.120,11.80
2019-06-03 14:00,29.493,22.325,34.250,11.95
2019-06-03 15:00,29.500,22.291,34.440,12.17
2019-06-03 16:00,29.488,22.253,34.560,12.33
2019-06-03 17:00,29.491,22.262,34.530,12.29
2019-06-03 18:00,29.428,22.199,34.530,12.37
2019-06-03 19:00,29.483,22.244,34.580,12.36
2019-06-03 20:00,29.510,22.299,34.450,12.17
2019-06-03 21:00,29.555,22.368,34.340,11.98
2019-06-03 22:00,29.538,22.353,34.330,11.99
2019-06-03 23:00,,,,
2019-06-04 00:00,29.323,22.222,33.940,11.79
2019-06-04 01:00,29.403,22.389,33.530,11.19
2019-06-04 02:00,29.434,22.430,33.480,11.09
2019-06-04 03:00,29.462,22.472,33.410,10.97
2019-06-04 04:00,29.538,22.581,33.250,10.68
2019-06-04 05:00,29.698,22.759,33.140,10.35
2019-06-04 06:00,29.776,22.867,32.980,10.06
2019-06-04 07:00,29.848,22.966,32.830,9.79
2019-06-04 08:00,29.875,23.017,32.700,9.60
2019-06-04 09:00,29.823,22.986,32.600,9.54
2019-06-04 10:00,29.549,22.722,32.590,9.86
2019-06-04 11:00,29.412,22.561,32.730,10.20
2019-06-04 12:00,29.476,22.607,32.810,10.22
2019-06-04 13:00,29.501,22.604,32.950,10.36
2019-06-04 14:00,29.678,22.734,33.170,10.41
2019-06-04 15:00,29.794,22.855,33.130,10.22
2019-06-04 16:00,29.881,22.907,33.300,10.32
2019-06-04 17:00,29.861,22.891,33.280,10.32
2019-06-04 18:00,29.896,22.914,33.340,10.35
2019-06-04 19:00,29.910,22.901,33.470,10.49
2019-06-04 20:00,29.994,22.982,33.480,10.40
2019-06-04 21:00,30.024,22.985,33.610,10.52
2019-06-04 22:00,29.873,22.908,33.250,10.27
2019-06-04 23:00,29.778,22.802,33.320,10.47
2019-06-05 00:00,29.871,22.964,32.960,9.92
2019-06-05 01:00,29.888,22.971,33.010,9.96
2019-06-05 02:00,29.785,22.829,33.220,10.34
2019-06-05 03:00,29.658,22.672,33.380,10.69
2019-06-05 04:00,29.660,22.662,33.440,10.76
2019-06-05 05:00,29.672,22.679,33.410,10.71
2019-06-05 06:00,29.719,22.746,33.310,10.53
2019-06-05 07:00,29.823,22.860,33.250,10.33
2019-06-05 08:00,29.859,22.910,33.170,10.19
2019-06-05 09:00,29.885,22.962,33.040,10.00
2019-06-05 10:00,29.899,22.996,32.930,9.85
2019-06-05 11:00,29.934,23.001,33.080,9.99
2019-06-05 12:00,30.017,23.063,33.180,10.01
2019-06-05 13:00,30.028,23.099,33.050,9.84
2019-06-05 14:00,29.985,23.049,33.090,9.94
2019-06-05 15:00,30.001,23.047,33.180,10.03
2019-06-05 16:00,29.631,22.581,33.690,11.10
2019-06-05 17:00,29.487,22.399,33.880,11.51
2019-06-05 18:00,29.556,22.491,33.770,11.29
2019-06-05 19:00,29.562,22.509,33.710,11.21
2019-06-05 20:00,29.514,22.481,33.620,11.16
2019-06-05 21:00,29.374,22.337,33.640,11.36
2019-06-05 22:00,29.291,22.269,33.570,11.38
2019-06-05 23:00,29.177,22.141,33.640,11.61
2019-06-06 00:00,,,,
2019-06-06 01:00,29.254,22.210,33.680,11.56
2019-06-06 02:00,29.320,22.262,33.740,11.55
2019-06-06 03:00,29.354,22.303,33.710,11.47
2019-06-06 04:00,29.345,22.296,33.700,11.47
2019-06-06 05:00,29.182,22.159,33.580,11.53
2019-06-06 06:00,29.128,22.113,33.540,11.55
2019-06-06 07:00,28.848,21.888,33.290,11.60
2019-06-06 08:00,28.651,21.740,33.060,11.57
2019-06-06 09:00,28.181,21.367,32.610,11.62
2019-06-06 10:00,28.096,21.284,32.600,11.72
2019-06-06 11:00,28.363,21.491,32.880,11.72
2019-06-06 12:00,28.442,21.558,32.930,11.68
2019-06-06 13:00,28.398,21.555,32.740,11.50
2019-06-06 14:00,28.672,21.772,33.010,11.48
2019-06-06 15:00,28.872,21.892,33.380,11.68
2019-06-06 16:00,28.710,21.739,33.340,11.84
2019-06-06 17:00,28.648,21.583,33.760,12.44
2019-06-06 18:00,28.819,21.683,34.080,12.61
2019-06-06 19:00,28.881,21.611,34.670,13.25
2019-06-06 20:00,28.850,21.633,34.440,13.01
2019-06-06 21:00,28.801,21.545,34.600,13.27
2019-06-06 22:00,28.872,21.593,34.710,13.31
2019-06-06 23:00,28.945,21.787,34.190,12.58
2019-06-07 00:00,28.975,21.735,34.550,12.98
2019-06-07 01:00,29.008,21.828,34.290,12.62
2019-06-07 02:00,28.977,21.787,34.330,12.71
2019-06-07 03:00,28.984,21.815,34.240,12.59
2019-06-07 04:00,28.983,21.836,34.140,12.47
2019-06-07 05:00,28.976,21.838,34.100,12.43
2019-06-07 06:00,29.046,21.918,34.060,12.29
2019-06-07 07:00,29.135,22.003,34.080,12.20
2019-06-07 08:00,29.251,22.141,33.980,11.93
2019-06-07 09:00,29.294,22.180,34.000,11.90
2019-06-07 10:00,29.319,22.193,34.060,11.94
2019-06-07 11:00,29.308,22.155,34.180,12.10
2019-06-07 12:00,29.293,22.129,34.230,12.18
2019-06-07 13:00,29.268,22.095,34.270,12.26
2019-06-07 14:00,29.088,21.863,34.490,12.76
2019-06-07 15:00,29.028,21.736,34.780,13.19
2019-06-07 16:00,28.994,21.652,34.990,13.49
2019-06-07 17:00,28.981,21.601,35.150,13.70
2019-06-07 18:00,28.997,21.594,35.250,13.80
2019-06-07 19:00,29.012,21.632,35.150,13.66
2019-06-07 20:00,29.042,21.664,35.150,13.62
2019-06-07 21:00,29.013,21.574,35.400,13.96
2019-06-07 22:00,29.061,21.655,35.270,13.74
2019-06-07 23:00,29.098,21.740,35.070,13.45
2019-06-08 00:00,29.138,21.800,34.990,13.30
2019-06-08 01:00,29.215,21.923,34.800,12.97
2019-06-08 02:00,29.292,22.012,34.750,12.81
2019-06-08 03:00,29.345,22.079,34.690,12.67
2019-06-08 04:00,29.348,22.078,34.710,12.69
2019-06-08 05:00,29.381,22.098,34.770,12.72
2019-06-08 06:00,29.432,22.143,34.800,12.69
2019-06-08 07:00,29.468,22.184,34.780,12.62
2019-06-08 08:00,29.493,22.207,34.790,12.60
2019-06-08 09:00,29.500,22.215,34.780,12.58
2019-06-08 10:00,29.504,22.225,34.760,12.55
2019-06-08 11:00,29.517,22.231,34.790,12.57
2019-06-08 12:00,29.540,22.254,34.790,12.54
2019-06-08 13:00,29.534,22.235,34.850,12.62
2019-06-08 14:00,29.457,22.144,34.910,12.79
2019-06-08 15:00,28.999,21.627,35.120,13.64
2019-06-08 16:00,29.221,21.737,35.620,13.95
2019-06-08 17:00,29.046,21.398,36.260,14.95
2019-06-08 18:00,29.254,21.618,36.250,14.66
2019-06-08 19:00,29.354,21.769,36.060,14.30
2019-06-08 20:00,29.419,21.880,35.880,14.00
2019-06-08 21:00,29.510,21.988,35.820,13.81
2019-06-08 22:00,29.512,22.060,35.520,13.45
2019-06-08 23:00,29.530,22.098,35.430,13.32
2019-06-09 00:00,29.502,22.065,35.450,13.38
2019-06-09 01:00,29.519,22.115,35.310,13.19
2019-06-09 02:00,29.584,22.247,35.020,12.76
2019-06-09 03:00,29.559,22.190,35.160,12.96
2019-06-09 04:00,29.571,22.196,35.190,12.98
2019-06-09 05:00,29.574,22.194,35.210,13.00
2019-06-09 06:00,29.561,22.165,35.280,13.10
2019-06-09 07:00,29.644,22.312,35.000,12.66
2019-06-09 08:00,29.605,22.237,35.160,12.90
2019-06-09 09:00,29.583,22.178,35.320,13.12
2019-06-09 10:00,29.586,22.165,35.390,13.20
2019-06-09 11:00,29.568,22.138,35.430,13.27
2019-06-09 12:00,29.560,22.118,35.480,13.34
2019-06-09 13:00,29.544,22.067,35.630,13.54
2019-06-09 14:00,29.564,22.043,35.820,13.74
2019-06-09 15:00,29.587,22.067,35.820,13.71
2019-06-09 16:00,29.607,21.991,36.230,14.17
2019-06-09 17:00,29.594,21.947,36.350,14.33
2019-06-09 18:00,29.577,21.985,36.120,14.08
2019-06-09 19:00,29.639,21.982,36.400,14.33
2019-06-09 20:00,29.624,21.979,36.350,14.29
2019-06-09 21:00,29.614,22.012,36.170,14.09
2019-06-09 22:00,29.573,22.000,36.040,13.99
2019-06-09 23:00,29.555,21.986,36.020,13.99
2019-06-10 00:00,29.531,21.988,35.910,13.89
2019-06-10 01:00,29.519,21.995,35.830,13.81
2019-06-10 02:00,29.496,21.971,35.830,13.84
2019-06-10 03:00,29.489,21.963,35.830,13.85
2019-06-10 04:00,29.505,21.978,35.840,13.84
2019-06-10 05:00,29.527,22.003,35.830,13.80
2019-06-10 06:00,29.532,22.012,35.810,13.77
2019-06-10 07:00,29.518,21.995,35.820,13.80
2019-06-10 08:00,29.495,21.960,35.870,13.89
2019-06-10 09:00,29.461,21.930,35.850,13.91
2019-06-10 10:00,29.376,21.868,35.740,13.89
2019-06-10 11:00,29.336,21.817,35.780,13.99
2019-06-10 12:00,29.325,21.787,35.860,14.10
2019-06-10 13:00,29.345,21.788,35.940,14.17
2019-06-10 14:00,29.350,21.772,36.030,14.27
2019-06-10 15:00,29.355,21.731,36.220,14.49
2019-06-10 16:00,29.348,21.684,36.380,14.69
2019-06-10 17:00,29.378,21.689,36.490,14.78
2019-06-10 18:00,29.396,21.690,36.560,14.84
2019-06-10 19:00,29.429,21.772,36.370,14.57
2019-06-10 20:00,29.478,21.803,36.450,14.60
2019-06-10 21:00,29.487,21.797,36.510,14.66
2019-06-10 22:00,29.476,21.805,36.430,14.58
2019-06-10 23:00,29.485,21.825,36.390,14.52
2019-06-11 00:00,29.499,21.842,36.380,14.49
2019-06-11 01:00,29.495,21.845,36.350,14.46
2019-06-11 02:00,29.563,21.916,36.350,14.37
2019-06-11 03:00,29.600,21.983,36.230,14.18
2019-06-11 04:00,29.666,22.157,35.780,13.56
2019-06-11 05:00,29.686,22.208,35.650,13.38
2019-06-11 06:00,29.700,22.213,35.690,13.41
2019-06-11 07:00,29.710,22.232,35.650,13.35
2019-06-11 08:00,29.723,22.261,35.580,13.25
2019-06-11 09:00,29.755,22.305,35.530,13.15
2019-06-11 10:00,29.737,22.278,35.570,13.22
2019-06-11 11:00,29.785,22.361,35.420,12.98
2019-06-11 12:00,29.806,22.434,35.190,12.68
2019-06-11 13:00,29.786,22.409,35.210,12.73
2019-06-11 14:00,29.780,22.376,35.330,12.88
2019-06-11 15:00,29.743,22.323,35.400,13.01
2019-06-11 16:00,29.668,22.242,35.420,13.13
2019-06-11 17:00,29.636,22.198,35.470,13.23
2019-06-11 18:00,29.704,22.247,35.560,13.25
2019-06-11 19:00,29.741,22.239,35.760,13.44
2019-06-11 20:00,29.893,22.546,35.080,12.44
2019-06-11 21:00,29.971,22.650,34.960,12.20
2019-06-11 22:00,30.010,22.714,34.850,12.02
2019-06-11 23:00,30.051,22.776,34.750,11.85
2019-06-12 00:00,30.076,22.812,34.700,11.76
2019-06-12 01:00,30.101,22.847,34.650,11.67
2019-06-12 02:00,30.037,22.737,34.870,12.01
2019-06-12 03:00,29.951,22.589,35.150,12.45
2019-06-12 04:00,29.861,22.443,35.400,12.86
2019-06-12 05:00,29.823,22.390,35.460,12.98
2019-06-12 06:00,29.757,22.328,35.440,13.04
2019-06-12 07:00,29.731,22.306,35.420,13.05
2019-06-12 08:00,29.691,22.266,35.420,13.10
2019-06-12 09:00,29.659,22.235,35.410,13.13
2019-06-12 10:00,29.667,22.243,35.410,13.12
2019-06-12 11:00,29.719,22.287,35.450,13.10
2019-06-12 12:00,29.747,22.309,35.480,13.10
2019-06-12 13:00,29.788,22.323,35.600,13.19
2019-06-12 14:00,29.790,22.298,35.720,13.33
2019-06-12 15:00,29.887,22.302,36.130,13.69
2019-06-12 16:00,29.729,22.118,36.220,14.00
2019-06-12 17:00,29.797,22.165,36.320,14.03
2019-06-12 18:00,29.806,22.132,36.500,14.23
2019-06-12 19:00,29.837,22.230,36.220,13.86
2019-06-12 20:00,29.813,22.181,36.320,14.01
2019-06-12 21:00,29.784,22.213,36.060,13.74
2019-06-12 22:00,29.793,22.259,35.900,13.54
2019-06-12 23:00,29.768,22.261,35.780,13.43
2019-06-13 00:00,29.770,22.284,35.690,13.32
2019-06-13 01:00,29.820,22.367,35.550,13.09
2019-06-13 02:00,,,,
2019-06-13 03:00,,,,
2019-06-13 04:00,30.005,22.550,35.570,12.88
2019-06-13 05:00,30.081,22.632,35.550,12.76
2019-06-13 06:00,30.108,22.654,35.570,12.75
2019-06-13 07:00,29.968,22.508,35.590,12.95
2019-06-13 08:00,29.946,22.470,35.660,13.06
2019-06-13 09:00,29.928,22.468,35.590,13.00
2019-06-13 10:00,29.916,22.462,35.560,12.98
2019-06-13 11:00,29.911,22.441,35.630,13.07
2019-06-13 12:00,29.917,22.450,35.620,13.05
2019-06-13 13:00,29.936,22.476,35.590,12.99
2019-06-13 14:00,29.957,22.502,35.570,12.94
2019-06-13 15:00,29.964,22.511,35.560,12.92
2019-06-13 16:00,29.980,22.538,35.510,12.84
2019-06-13 17:00,29.974,22.542,35.470,12.80
2019-06-13 18:00,29.937,22.524,35.380,12.74
2019-06-13 19:00,29.950,22.542,35.360,12.70
2019-06-13 20:00,29.981,22.575,35.350,12.65
2019-06-13 21:00,29.986,22.596,35.280,12.56
2019-06-13 22:00,29.988,22.607,35.240,12.51
2019-06-13 23:00,29.993,22.616,35.220,12.48
2019-06-14 00:00,30.011,22.632,35.230,12.47
2019-06-14 01:00,30.038,22.666,35.200,12.40
2019-06-14 02:00,30.052,22.695,35.130,12.30
2019-06-14 03:00,30.063,22.725,35.040,12.18
2019-06-14 04:00,30.069,22.757,34.920,12.03
2019-06-14 05:00,30.061,22.761,34.870,11.98
2019-06-14 06:00,30.063,22.737,34.990,12.12
2019-06-14 07:00,30.060,22.727,35.020,12.16
2019-06-14 08:00,30.056,22.717,35.050,12.20
2019-06-14 09:00,30.060,22.727,35.020,12.16
2019-06-14 10:00,30.058,22.727,35.010,12.15
2019-06-14 11:00,30.052,22.730,34.970,12.11
2019-06-14 12:00,30.054,22.741,34.930,12.06
2019-06-14 13:00,30.052,22.753,34.860,11.98
2019-06-14 14:00,30.058,22.762,34.850,11.96
2019-06-14 15:00,30.019,22.699,34.960,12.14
2019-06-14 16:00,30.041,22.665,35.220,12.42
2019-06-14 17:00,30.046,22.638,35.360,12.58
2019-06-14 18:00,30.031,22.610,35.420,12.67
2019-06-14 19:00,30.013,22.558,35.570,12.87
2019-06-14 20:00,30.031,22.572,35.590,12.87
2019-06-14 21:00,30.038,22.581,35.580,12.85
2019-06-14 22:00,30.030,22.573,35.580,12.86
2019-06-14 23:00,30.024,22.552,35.650,12.95
2019-06-15 00:00,29.885,22.430,35.560,13.02
2019-06-15 01:00,29.769,22.322,35.520,13.12
2019-06-15 02:00,29.702,22.272,35.440,13.11
2019-06-15 03:00,29.839,22.394,35.520,13.03
2019-06-15 04:00,29.896,22.449,35.530,12.97
2019-06-15 05:00,30.005,22.525,35.680,13.01
2019-06-15 06:00,29.978,22.527,35.550,12.89
2019-06-15 07:00,29.985,22.572,35.380,12.68
2019-06-15 08:00,30.001,22.613,35.270,12.53
2019-06-15 09:00,30.118,22.624,35.750,12.95
2019-06-15 10:00,30.158,22.638,35.870,13.04
2019-06-15 11:00,30.236,22.694,35.970,13.06
2019-06-15 12:00,30.266,22.701,36.080,13.15
2019-06-15 13:00,30.270,22.698,36.110,13.18
2019-06-15 14:00,30.234,22.629,36.250,13.39
2019-06-15 15:00,30.145,22.541,36.240,13.49
2019-06-15 16:00,30.082,22.476,36.240,13.57
2019-06-15 17:00,30.057,22.480,36.110,13.45
2019-06-15 18:00,30.062,22.490,36.090,13.42
2019-06-15 19:00,30.129,22.552,36.120,13.37
2019-06-15 20:00,30.175,22.601,36.110,13.30
2019-06-15 21:00,30.211,22.617,36.200,13.36
2019-06-15 22:00,30.242,22.623,36.310,13.45
2019-06-15 23:00,30.231,22.617,36.290,13.44
2019-06-16 00:00,30.293,22.682,36.280,13.35
2019-06-16 01:00,30.273,22.683,36.190,13.27
2019-06-16 02:00,30.212,22.643,36.090,13.23
2019-06-16 03:00,,,,
2019-06-16 04:00,30.248,22.738,35.830,12.88
2019-06-16 05:00,30.215,22.745,35.650,12.71
2019-06-16 06:00,30.029,22.659,35.190,12.40
2019-06-16 07:00,30.007,22.597,35.370,12.64
2019-06-16 08:00,30.023,22.638,35.260,12.49
2019-06-16 09:00,30.014,22.642,35.200,12.43
2019-06-16 10:00,30.030,22.682,35.090,12.28
2019-06-16 11:00,30.006,22.658,35.090,12.31
2019-06-16 12:00,30.016,22.665,35.100,12.31
2019-06-16 13:00,30.062,22.690,35.200,12.37
2019-06-16 14:00,30.085,22.667,35.410,12.59
2019-06-16 15:00,30.110,22.666,35.530,12.70
2019-06-16 16:00,30.104,22.657,35.540,12.72
2019-06-16 17:00,30.097,22.648,35.550,12.74
2019-06-16 18:00,30.063,22.629,35.480,12.70
2019-06-16 19:00,30.064,22.641,35.430,12.64
2019-06-16 20:00,30.028,22.611,35.400,12.65
2019-06-16 21:00,30.023,22.602,35.420,12.68
2019-06-16 22:00,30.026,22.600,35.440,12.70
2019-06-16 23:00,30.046,22.589,35.580,12.84
2019-06-17 00:00,30.033,22.584,35.550,12.82
2019-06-17 01:00,30.013,22.570,35.520,12.81
2019-06-17 02:00,30.021,22.578,35.520,12.80
2019-06-17 03:00,29.988,22.571,35.400,12.70
2019-06-17 04:00,29.980,22.563,35.400,12.71
2019-06-17 05:00,29.974,22.566,35.360,12.67
2019-06-17 06:00,29.992,22.581,35.370,12.66
2019-06-17 07:00,30.008,22.573,35.480,12.77
2019-06-17 08:00,30.020,22.554,35.620,12.92
2019-06-17 09:00,30.056,22.584,35.650,12.91
2019-06-17 10:00,30.079,22.596,35.700,12.94
2019-06-17 11:00,30.164,22.660,35.800,12.95
2019-06-17 12:00,30.189,22.645,35.980,13.13
2019-06-17 13:00,30.236,22.640,36.210,13.34
2019-06-17 14:00,30.277,22.653,36.340,13.44
2019-06-17 15:00,30.407,22.696,36.730,13.73
2019-06-17 16:00,30.060,22.241,37.140,14.65
2019-06-17 17:00,30.223,22.335,37.450,14.80
2019-06-17 18:00,30.091,22.244,37.260,14.75
2019-06-17 19:00,30.033,22.147,37.410,15.00
2019-06-17 20:00,30.010,22.225,36.990,14.54
2019-06-17 21:00,30.029,22.310,36.720,14.20
2019-06-17 22:00,30.121,22.463,36.470,13.79
2019-06-17 23:00,30.111,22.401,36.690,14.06
2019-06-18 00:00,30.163,22.431,36.790,14.11
2019-06-18 01:00,30.144,22.418,36.760,14.10
2019-06-18 02:00,30.116,22.425,36.610,13.96
2019-06-18 03:00,30.114,22.413,36.650,14.01
2019-06-18 04:00,,,,
2019-06-18 05:00,30.056,22.441,36.280,13.65
2019-06-18 06:00,30.036,22.454,36.130,13.50
2019-06-18 07:00,30.085,22.502,36.140,13.45
2019-06-18 08:00,30.120,22.518,36.230,13.51
2019-06-18 09:00,30.212,22.630,36.150,13.30
2019-06-18 10:00,30.264,22.689,36.120,13.20
2019-06-18 11:00,30.288,22.713,36.120,13.17
2019-06-18 12:00,30.251,22.644,36.260,13.38
2019-06-18 13:00,30.319,22.579,36.840,13.97
2019-06-18 14:00,30.413,22.648,36.960,13.99
2019-06-18 15:00,30.438,22.655,37.040,14.05
2019-06-18 16:00,30.462,22.649,37.170,14.17
2019-06-18 17:00,30.475,22.637,37.280,14.28
2019-06-18 18:00,30.471,22.611,37.370,14.39
2019-06-18 19:00,30.472,22.625,37.320,14.33
2019-06-18 20:00,30.444,22.574,37.410,14.47
2019-06-18 21:00,30.420,22.580,37.280,14.35
2019-06-18 22:00,30.310,22.452,37.340,14.56
2019-06-18 23:00,30.330,22.434,37.500,14.72
2019-06-19 00:00,30.456,22.562,37.510,14.57
2019-06-19 01:00,30.507,22.670,37.280,14.24
2019-06-19 02:00,30.546,22.696,37.340,14.26
2019-06-19 03:00,30.554,22.719,37.280,14.18
2019-06-19 04:00,30.559,22.714,37.320,14.22
2019-06-19 05:00,30.536,22.704,37.260,14.18
2019-06-19 06:00,30.505,22.687,37.200,14.15
2019-06-19 07:00,30.446,22.618,37.230,14.26
2019-06-19 08:00,30.363,22.571,37.070,14.18
2019-06-19 09:00,30.327,22.557,36.970,14.11
2019-06-19 10:00,30.330,22.555,36.990,14.13
2019-06-19 11:00,30.343,22.574,36.970,14.09
2019-06-19 12:00,30.386,22.611,37.000,14.07
2019-06-19 13:00,30.307,22.470,37.250,14.46
2019-06-19 14:00,30.424,22.546,37.440,14.53
2019-06-19 15:00,30.480,22.554,37.650,14.70
2019-06-19 16:00,30.554,22.575,37.880,14.87
2019-06-19 17:00,30.584,22.626,37.800,14.74
2019-06-19 18:00,30.587,22.655,37.690,14.61
2019-06-19 19:00,30.553,22.625,37.670,14.63
2019-06-19 20:00,30.497,22.601,37.530,14.54
2019-06-19 21:00,30.459,22.667,37.080,14.07
2019-06-19 22:00,30.453,22.703,36.900,13.87
2019-06-19 23:00,30.473,22.715,36.940,13.89
2019-06-20 00:00,30.505,22.672,37.260,14.22
2019-06-20 01:00,30.493,22.667,37.230,14.20
2019-06-20 02:00,30.526,22.668,37.370,14.32
2019-06-20 03:00,30.547,22.694,37.350,14.27
2019-06-20 04:00,,,,
2019-06-20 05:00,30.497,22.694,37.130,14.08
2019-06-20 06:00,30.419,22.686,36.820,13.82
2019-06-20 07:00,30.384,22.685,36.670,13.69
2019-06-20 08:00,30.370,22.710,36.500,13.51
2019-06-20 09:00,30.333,22.723,36.280,13.30
2019-06-20 10:00,30.328,22.727,36.240,13.26
2019-06-20 11:00,30.349,22.753,36.220,13.21
2019-06-20 12:00,30.349,22.753,36.220,13.21
2019-06-20 13:00,30.379,22.731,36.450,13.44
2019-06-20 14:00,30.439,22.728,36.730,13.69
2019-06-20 15:00,30.418,22.672,36.880,13.89
2019-06-20 16:00,30.371,22.609,36.940,14.02
2019-06-20 17:00,30.349,22.613,36.830,13.92
2019-06-20 18:00,30.294,22.570,36.770,13.92
2019-06-20 19:00,30.150,22.441,36.690,14.01
2019-06-20 20:00,30.121,22.449,36.530,13.86
2019-06-20 21:00,30.160,22.517,36.410,13.67
2019-06-20 22:00,30.138,22.506,36.360,13.64
2019-06-20 23:00,30.196,22.574,36.320,13.52
2019-06-21 00:00,30.205,22.581,36.330,13.52
2019-06-21 01:00,30.210,22.591,36.310,13.49
2019-06-21 02:00,30.210,22.591,36.310,13.49
2019-06-21 03:00,30.200,22.585,36.290,13.48
2019-06-21 04:00,,,,
2019-06-21 05:00,,,,
2019-06-21 06:00,,,,
2019-06-21 07:00,,,,
2019-06-21 08:00,30.334,22.789,35.990,12.96
2019-06-21 09:00,30.357,22.815,35.980,12.92
2019-06-21 10:00,30.347,22.794,36.030,12.99
2019-06-21 11:00,30.237,22.653,36.160,13.28
2019-06-21 12:00,30.175,22.601,36.110,13.30
2019-06-21 13:00,30.093,22.496,36.200,13.51
2019-06-21 14:00,30.013,22.403,36.250,13.67
2019-06-21 15:00,29.986,22.355,36.340,13.81
2019-06-21 16:00,30.024,22.396,36.330,13.75
2019-06-21 17:00,30.047,22.393,36.440,13.85
2019-06-21 18:00,30.082,22.409,36.530,13.91
2019-06-21 19:00,30.089,22.404,36.580,13.96
2019-06-21 20:00,30.031,22.350,36.560,14.01
2019-06-21 21:00,30.021,22.344,36.540,14.00
2019-06-21 22:00,30.020,22.345,36.530,13.99
2019-06-21 23:00,29.959,22.279,36.540,14.08
2019-06-22 00:00,29.835,22.178,36.430,14.11
2019-06-22 01:00,29.771,22.143,36.300,14.04
2019-06-22 02:00,29.749,22.132,36.250,14.01
2019-06-22 03:00,29.830,22.182,36.390,14.07
2019-06-22 04:00,29.889,22.207,36.540,14.17
2019-06-22 05:00,29.924,22.236,36.570,14.16
2019-06-22 06:00,29.921,22.238,36.550,14.14
2019-06-22 07:00,29.916,22.242,36.510,14.10
2019-06-22 08:00,29.901,22.239,36.460,14.06
2019-06-22 09:00,29.806,22.212,36.160,13.83
2019-06-22 10:00,29.764,22.213,35.970,13.66
2019-06-22 11:00,29.713,22.205,35.780,13.50
2019-06-22 12:00,29.664,22.171,35.710,13.48
2019-06-22 13:00,29.667,22.144,35.840,13.63
2019-06-22 14:00,29.655,22.101,35.970,13.80
2019-06-22 15:00,29.715,22.008,36.620,14.49
2019-06-22 16:00,29.754,22.061,36.570,14.38
2019-06-22 17:00,29.731,22.010,36.680,14.54
2019-06-22 18:00,29.753,22.062,36.560,14.37
2019-06-22 19:00,,,,
2019-06-22 20:00,29.771,22.062,36.640,14.44
2019-06-22 21:00,29.824,22.159,36.460,14.16
2019-06-22 22:00,29.842,22.187,36.420,14.09
2019-06-22 23:00,29.740,22.044,36.580,14.41
2019-06-23 00:00,29.879,22.174,36.640,14.30
2019-06-23 01:00,30.077,22.314,36.910,14.36
2019-06-23 02:00,30.105,22.364,36.820,14.22
2019-06-23 03:00,,,,
2019-06-23 04:00,29.877,22.162,36.680,14.35
2019-06-23 05:00,29.896,22.189,36.650,14.29
2019-06-23 06:00,29.881,22.199,36.540,14.18
2019-06-23 07:00,29.836,22.151,36.550,14.25
2019-06-23 08:00,29.882,22.212,36.490,14.12
2019-06-23 09:00,30.140,22.435,36.670,14.00
2019-06-23 10:00,30.266,22.549,36.740,13.92
2019-06-23 11:00,30.180,22.460,36.740,14.03
2019-06-23 12:00,30.170,22.440,36.780,14.09
2019-06-23 13:00,30.204,22.441,36.930,14.22
2019-06-23 14:00,30.169,22.354,37.140,14.51
2019-06-23 15:00,30.203,22.338,37.350,14.71
2019-06-23 16:00,30.296,22.435,37.350,14.59
2019-06-23 17:00,30.302,22.414,37.460,14.71
2019-06-23 18:00,30.309,22.407,37.520,14.77
2019-06-23 19:00,30.315,22.385,37.640,14.90
2019-06-23 20:00,30.330,22.371,37.760,15.02
2019-06-23 21:00,30.326,22.375,37.730,14.99
2019-06-23 22:00,30.287,22.287,37.920,15.26
2019-06-23 23:00,30.163,22.175,37.850,15.34
2019-06-24 00:00,29.908,21.945,37.700,15.50
2019-06-24 01:00,29.814,21.898,37.490,15.38
2019-06-24 02:00,29.786,21.923,37.270,15.16
2019-06-24 03:00,,,,